Regional Weather Roundup
Issued by NWS

Home | Current Version | Previous Version | Text Only | Print | Product List | Glossary Off
Versions: 1 2 3 4 5 6 7 8 9 10 11 12 13 14 15 16 17 18 19 20 21 22 23 24 25 26 27 28 29 30 31 32 33 34 35 36 37 38 39 40 41 42 43 44 45 46 47 48 49 50

000
ASUS43 KOAX 301702
RWRNE

WEATHER ROUNDUP FOR NEBRASKA
NATIONAL WEATHER SERVICE OMAHA NE
1200 PM CDT TUE AUG 30 2016

NOTES: SATELLITE DATA IS BEING USED TO AUGMENT CLOUD COVER ABOVE
       12000 FEET.
       "FAIR" INDICATES FEW OR NO CLOUDS BELOW 12,000 FEET WITH NO
       SIGNIFICANT WEATHER AND/OR OBSTRUCTIONS TO VISIBILITY.

  * THESE STATIONS DO NOT REPORT WEATHER SUCH AS RAIN...SNOW OR FOG.

NEZ001>004-019>022-054>056-301800-
NEBRASKA PANHANDLE

CITY           SKY/WX    TMP DP  RH WIND       PRES   REMARKS
SCOTTSBLUFF    SUNNY     76  61  59 CALM      30.30S
ALLIANCE       SUNNY     77  60  55 VRB6      30.29S
CHADRON        SUNNY     73  60  63 CALM      30.26F
KIMBALL        MOSUNNY   75  58  55 E6        30.34S
SIDNEY         PTSUNNY   77  58  51 SE8       30.32R
$$

NEZ057>060-069>072-079>082-301800-
SOUTHWEST NEBRASKA

CITY           SKY/WX    TMP DP  RH WIND       PRES   REMARKS
NORTH PLATTE   MOSUNNY   76  66  71 SE7       30.26S
IMPERIAL       CLOUDY    72  64  76 SE9       30.28R
LEXINGTON      CLOUDY    71  67  85 W3        30.26S
MCCOOK         CLOUDY    71  66  84 VRB3      30.26R
OGALLALA       CLOUDY    80  57  45 SE9       30.27S
$$

NEZ005>010-023>029-035>040-094-301800-
NORTH CENTRAL NEBRASKA

CITY           SKY/WX    TMP DP  RH WIND       PRES   REMARKS
VALENTINE      SUNNY     83  61  47 SE8       30.23F
AINSWORTH      CLOUDY    80  67  66 E7        30.24S
BROKEN BOW     LGT RAIN  73  68  84 CALM      30.25S
O`NEILL        MOSUNNY   78  66  66 SE7       30.24S
ORD            CLOUDY    74  65  73 CALM      30.23S
THEDFORD       PTSUNNY   82  64  54 S6        30.26S
$$

NEZ041-046>049-061>064-073>077-083>087-301800-
SOUTH CENTRAL NEBRASKA

CITY           SKY/WX    TMP DP  RH WIND       PRES   REMARKS
GRAND ISLAND   CLOUDY    75  66  73 E5        30.24S
AURORA         MOSUNNY   75  69  81 CALM      30.24R
HASTINGS       CLOUDY    75  65  70 CALM      30.24S
HEBRON         CLOUDY    77  69  75 NE3       30.21S
HOLDREGE       CLOUDY    71  66  83 CALM      30.25S
KEARNEY *      CLOUDY    73  64  73 SW3       30.23F
YORK           CLOUDY    75  68  78 NE5       30.24R
$$

NEZ011>018-030>034-042>045-301800-
NORTHEAST NEBRASKA

CITY           SKY/WX    TMP DP  RH WIND       PRES   REMARKS
NORFOLK        CLOUDY    74  68  81 E7        30.24R
ALBION         CLOUDY    73  69  86 SE5       30.24F
BLAIR          LGT RAIN  74  69  83 SE3       30.22F
FREMONT        LGT RAIN  72  68  89 E3        30.24S
TEKAMAH        CLOUDY    72  68  87 SW3       30.20F
WAYNE          CLOUDY    74  70  86 S6        30.24S
$$

NEZ050>053-065>068-078-088>093-301800-
SOUTHEAST NEBRASKA

CITY           SKY/WX    TMP DP  RH WIND       PRES   REMARKS
LINCOLN        CLOUDY    74  69  85 NE7       30.23S
OMAHA EPPLEY   CLOUDY    75  67  76 N5        30.21F
BEATRICE       CLOUDY    76  69  80 NE6       30.21S
FALLS CITY     CLOUDY    75  71  87 NE5       30.19F
NEBRASKA CITY  PTSUNNY   75  73  92 E5        30.21F
PLATTSMOUTH    PTSUNNY   75  70  84 CALM      30.22S
$$

NEZ044-045-051>053-067-301800-
OMAHA AREA

CITY           SKY/WX    TMP DP  RH WIND       PRES   REMARKS
OMAHA EPPLEY   CLOUDY    75  67  76 N5        30.21F
BLAIR          LGT RAIN  74  69  83 SE3       30.22F
FREMONT        LGT RAIN  72  68  89 E3        30.24S
MILLARD        RAIN     N/A N/A N/A CALM      30.22S
OFFUTT AFB     LGT RAIN  75  71  89 VRB3      30.21S
PLATTSMOUTH    PTSUNNY   75  70  84 CALM      30.22S
WAHOO          DRIZZLE   73  69  89 NE6       30.23S
$$



USA.gov is the U.S. government's official web portal to all federal, state and local government web resources and services.